Orbital Elements at Epoch 2459200.5 (2020-Dec-17.0) TDB
Reference: JPL 15 (heliocentric ecliptic J2000)
Element | Value | Uncertainty (1-sigma) | Units |
e | .1606024344498551 | 3.0174e-08 | |
a | 2.351772260471843 | 9.7305e-09 | au |
q | 1.974071910168426 | 7.089e-08 | au |
i | 6.718037696691544 | 3.5316e-06 | deg |
node | 260.8057860921574 | 4.8404e-05 | deg |
peri | 177.8384491933243 | 5.1844e-05 | deg |
M | 248.6574340086887 | 1.9452e-05 | deg |
tp | 2459607.927226111373 (2022-Jan-28.42722611) | 7.2385e-05 | TDB |
period | 1317.320111084381 3.61 | 8.1756e-06 2.238e-08 | d yr |
n | .2732820951952659 | 1.6961e-09 | deg/d |
Q | 2.72947261077526 | 1.1293e-08 | au |
|
| | Orbit Determination Parameters
Additional Information
|